Weather History for Huntsville Madison, AL

Change the Weather History Date:

Saturday, December 8, 2012

  Actual Average (KHSV) Record (KHSV)
Temperature  
Mean Temperature 60 °F 45 °F  
Max Temperature 68 °F 55 °F 81 °F (1956)
Min Temperature 51 °F 36 °F 14 °F (2006)
Degree Days  
Heating Degree Days 6 20  
Month to date heating degree days 150  
Since 1 July heating degree days 677  
Cooling Degree Days 0 0  
Month to date cooling degree days 0  
Year to date cooling degree days 1949  
Growing Degree Days 10 (Base 50)    
Moisture  
Dew Point 53 °F    
Average Humidity 75    
Maximum Humidity 88    
Minimum Humidity 46    
Precipitation  
Precipitation 0.00 in 0.20 in 3.79 in (2009)
Month to date precipitation 1.56  
Year to date precipitation 50.13  
Snow  
Snow 0.00 in - - ()
Month to date snowfall  
Since 1 July snowfall  
Snow Depth -    
Sea Level Pressure  
Sea Level Pressure 29.97 in    
Wind  
Wind Speed 6 mph (South)    
Max Wind Speed 14 mph    
Max Gust Speed 18 mph    
Visibility 9 miles    
Events      
T = Trace of Precipitation, MM = Missing Value Source: NWS Daily Summary

Daily Weather History Graph

Daily Weather History Graph

Search for Another Location

Airport:

Trip Planner

Search our weather history database for the weather conditions in past years. The results will help you decide how hot, cold, wet, or windy it might be!

Date:

Astronomy

Dec. 08, 2012 Rise Set
Actual Time 6:41 AM CST 4:34 PM CST
Civil Twilight 6:13 AM CST 5:02 PM CST
Nautical Twilight 5:42 AM CST 5:34 PM CST
Astronomical Twilight 5:11 AM CST 6:05 PM CST
Moon 1:16 AM CST (12/8) 12:55 PM CST (12/8)
Length of Visible Light 10h 49m
Length of Day
9h 53m
Waning Crescent, 28% of the Moon is Illuminated
Dec 8
Waning Crescent
Dec 13
New
Dec 19
First Quarter
Dec 28
Full
Jan 4
Last Quarter

Hourly Weather History & Observations

Time (CST) Temp. Dew Point Humidity Pressure Visibility Wind Dir Wind Speed Gust Speed Precip Events Conditions
12:15 AM 53.6 °F 48.2 °F 82% 29.96 in 10.0 mi Calm Calm - N/A   Mostly Cloudy
12:35 AM 53.6 °F 48.2 °F 82% 29.96 in 10.0 mi Calm Calm - N/A   Mostly Cloudy
12:55 AM 51.8 °F 48.2 °F 88% 29.96 in 10.0 mi Calm Calm - N/A   Mostly Cloudy
1:15 AM 55.4 °F 51.8 °F 88% 29.95 in 10.0 mi SSE 4.6 mph - N/A   Mostly Cloudy
1:35 AM 57.2 °F 51.8 °F 82% 29.96 in 10.0 mi South 4.6 mph - N/A   Scattered Clouds
1:55 AM 59.0 °F 51.8 °F 77% 29.95 in 10.0 mi South 3.5 mph - N/A   Mostly Cloudy
2:15 AM 59.0 °F 51.8 °F 77% 29.96 in 10.0 mi South 6.9 mph - N/A   Overcast
2:35 AM 59.0 °F 51.8 °F 77% 29.96 in 10.0 mi South 8.1 mph - N/A   Overcast
2:55 AM 59.0 °F 53.6 °F 82% 29.96 in 10.0 mi SSW 9.2 mph - N/A   Overcast
3:15 AM 59.0 °F 53.6 °F 82% 29.96 in 10.0 mi SSW 9.2 mph - N/A   Overcast
3:35 AM 59.0 °F 53.6 °F 82% 29.97 in 10.0 mi SSW 5.8 mph - N/A   Overcast
3:55 AM 59.0 °F 53.6 °F 82% 29.97 in 10.0 mi SSW 6.9 mph - N/A   Overcast
4:15 AM 59.0 °F 53.6 °F 82% 29.97 in 7.0 mi SSW 5.8 mph - N/A   Overcast
4:35 AM 59.0 °F 53.6 °F 82% 29.97 in 7.0 mi South 5.8 mph - N/A   Overcast
4:55 AM 59.0 °F 53.6 °F 82% 29.98 in 7.0 mi South 4.6 mph - N/A   Overcast
5:15 AM 59.0 °F 53.6 °F 82% 29.98 in 7.0 mi South 4.6 mph - N/A   Overcast
5:35 AM 59.0 °F 53.6 °F 82% 29.98 in 7.0 mi South 6.9 mph - N/A   Overcast
5:55 AM 59.0 °F 53.6 °F 82% 29.98 in 7.0 mi South 9.2 mph - N/A   Overcast
6:15 AM 59.0 °F 53.6 °F 82% 29.98 in 7.0 mi South 9.2 mph - N/A   Overcast
6:35 AM 59.0 °F 53.6 °F 82% 29.98 in 5.0 mi South 6.9 mph - N/A   Mostly Cloudy
6:55 AM 59.0 °F 53.6 °F 82% 29.98 in 4.0 mi South 8.1 mph - N/A   Mostly Cloudy
7:15 AM 59.0 °F 55.4 °F 88% 29.97 in 4.0 mi South 8.1 mph - N/A   Overcast
7:35 AM 59.0 °F 55.4 °F 88% 29.97 in 5.0 mi SSE 8.1 mph - N/A   Mostly Cloudy
7:55 AM 60.8 °F 55.4 °F 82% 29.97 in 7.0 mi South 9.2 mph - N/A   Overcast
8:15 AM 60.8 °F 55.4 °F 82% 29.97 in 10.0 mi South 8.1 mph - N/A   Overcast
8:35 AM 60.8 °F 53.6 °F 77% 29.98 in 10.0 mi South 10.4 mph - N/A   Overcast
8:55 AM 60.8 °F 53.6 °F 77% 29.99 in 10.0 mi South 9.2 mph - N/A   Overcast
9:15 AM 60.8 °F 53.6 °F 77% 30.00 in 10.0 mi SSW 9.2 mph - N/A   Overcast
9:35 AM 60.8 °F 53.6 °F 77% 30.01 in 10.0 mi SSW 8.1 mph - N/A   Overcast
9:55 AM 62.6 °F 53.6 °F 72% 30.01 in 10.0 mi South 8.1 mph - N/A   Overcast
10:15 AM 62.6 °F 53.6 °F 72% 30.01 in 10.0 mi SSW 10.4 mph - N/A   Overcast
10:35 AM 62.6 °F 53.6 °F 72% 30.00 in 10.0 mi South 10.4 mph - N/A   Overcast
10:55 AM 62.6 °F 53.6 °F 72% 30.00 in 10.0 mi SW 6.9 mph - N/A   Overcast
11:15 AM 62.6 °F 53.6 °F 72% 30.00 in 10.0 mi SW 9.2 mph - N/A   Overcast
11:35 AM 62.6 °F 53.6 °F 72% 29.99 in 10.0 mi WSW 5.8 mph - N/A   Overcast
11:55 AM 64.4 °F 51.8 °F 64% 29.98 in 10.0 mi SW 8.1 mph - N/A   Overcast
12:15 PM 66.2 °F 51.8 °F 60% 29.97 in 10.0 mi SW 6.9 mph - N/A   Mostly Cloudy
12:35 PM 68.0 °F 51.8 °F 56% 29.96 in 10.0 mi West 6.9 mph - N/A   Overcast
12:55 PM 68.0 °F 51.8 °F 56% 29.96 in 10.0 mi WSW 5.8 mph - N/A   Mostly Cloudy
1:15 PM 66.2 °F 50.0 °F 56% 29.96 in 10.0 mi SSW 11.5 mph - N/A   Mostly Cloudy
1:35 PM 68.0 °F 48.2 °F 49% 29.94 in 10.0 mi South 9.2 mph - N/A   Mostly Cloudy
1:55 PM 68.0 °F 46.4 °F 46% 29.94 in 10.0 mi South 12.7 mph 18.4 mph N/A   Scattered Clouds
2:15 PM 68.0 °F 48.2 °F 49% 29.94 in 10.0 mi SSW 12.7 mph - N/A   Clear
2:35 PM 68.0 °F 50.0 °F 52% 29.94 in 10.0 mi SSW 13.8 mph - N/A   Clear
2:55 PM 66.2 °F 50.0 °F 56% 29.94 in 10.0 mi South 10.4 mph - N/A   Scattered Clouds
3:15 PM 66.2 °F 50.0 °F 56% 29.94 in 10.0 mi South 8.1 mph - N/A   Scattered Clouds
3:35 PM 64.4 °F 50.0 °F 59% 29.94 in 10.0 mi SSW 10.4 mph - N/A   Scattered Clouds
3:55 PM 66.2 °F 50.0 °F 56% 29.94 in 10.0 mi South 9.2 mph - N/A   Mostly Cloudy
4:15 PM 64.4 °F 50.0 °F 59% 29.94 in 10.0 mi South 8.1 mph - N/A   Scattered Clouds
4:35 PM 64.4 °F 51.8 °F 64% 29.94 in 10.0 mi South 6.9 mph - N/A   Clear
4:55 PM 62.6 °F 51.8 °F 68% 29.96 in 10.0 mi SSE 4.6 mph - N/A   Clear
5:15 PM 62.6 °F 53.6 °F 72% 29.96 in 10.0 mi SSE 8.1 mph - N/A   Clear
5:35 PM 62.6 °F 53.6 °F 72% 29.96 in 10.0 mi SSE 5.8 mph - N/A   Mostly Cloudy
5:55 PM 62.6 °F 53.6 °F 72% 29.96 in 10.0 mi SSE 4.6 mph - N/A   Scattered Clouds
6:15 PM 62.6 °F 53.6 °F 72% 29.97 in 10.0 mi Calm Calm - N/A   Scattered Clouds
6:35 PM 60.8 °F 53.6 °F 77% 29.97 in 10.0 mi SSE 3.5 mph - N/A   Scattered Clouds
6:55 PM 60.8 °F 55.4 °F 82% 29.97 in 10.0 mi SE 3.5 mph - N/A   Scattered Clouds
7:15 PM 60.8 °F 55.4 °F 82% 29.98 in 10.0 mi SSE 3.5 mph - N/A   Mostly Cloudy
7:35 PM 60.8 °F 55.4 °F 82% 29.97 in 10.0 mi SSE 5.8 mph - N/A   Overcast
7:55 PM 60.8 °F 55.4 °F 82% 29.98 in 10.0 mi SSE 5.8 mph - N/A   Mostly Cloudy
8:15 PM 60.8 °F 55.4 °F 82% 29.98 in 10.0 mi South 4.6 mph - N/A   Mostly Cloudy
8:35 PM 60.8 °F 55.4 °F 82% 29.98 in 10.0 mi South 3.5 mph - N/A   Mostly Cloudy
8:55 PM 60.8 °F 55.4 °F 82% 29.98 in 7.0 mi Calm Calm - N/A   Overcast
9:15 PM 60.8 °F 55.4 °F 82% 29.99 in 7.0 mi SSE 6.9 mph - N/A   Overcast
9:35 PM 60.8 °F 55.4 °F 82% 29.99 in 10.0 mi South 4.6 mph - N/A   Overcast
9:55 PM 62.6 °F 55.4 °F 77% 29.99 in 10.0 mi South 3.5 mph - N/A   Overcast
10:15 PM 62.6 °F 55.4 °F 77% 29.99 in 10.0 mi SSE 4.6 mph - N/A   Overcast
10:35 PM 60.8 °F 55.4 °F 82% 29.99 in 7.0 mi South 4.6 mph - N/A   Overcast
10:55 PM 62.6 °F 55.4 °F 77% 30.00 in 10.0 mi SSE 4.6 mph - N/A   Overcast
11:15 PM 60.8 °F 55.4 °F 82% 29.99 in 7.0 mi SSE 3.5 mph - N/A   Overcast
11:35 PM 60.8 °F 55.4 °F 82% 30.00 in 7.0 mi SSE 3.5 mph - N/A   Overcast
11:55 PM 60.8 °F 55.4 °F 82% 30.00 in 7.0 mi SSE 3.5 mph - N/A   Overcast